Regional Weather Roundup
Issued by NWS Grand Forks, ND

Home | Current Version | Previous Version | Graphics & Text | Print | Product List | Glossary On
Versions: 1 2 3 4 5 6 7 8 9 10 11 12 13 14 15 16 17 18 19 20 21 22 23 24 25 26 27 28 29 30 31 32 33 34 35 36 37 38 39 40 41 42 43 44 45 46 47 48 49 50
119
ASUS43 KFGF 221510
RWRFGF
PRAIRIE TO PINES  WEATHER ROUNDUP
NATIONAL WEATHER SERVICE EASTERN NORTH DAKOTA/GRAND FORKS ND
1000 AM CDT SUN OCT 22 2017

 **SATELLITE DATA USED TO AUGMENT SKY COVER AT AUTOMATED STATIONS**
 *****  WEATHER ACROSS EASTERN NORTH DAKOTA  *****

CITY           SKY/WX    TMP DP  RH WIND       PRES   REMARKS
GRAND FORKS    FAIR      47  34  60 SW14      29.83R
GRAND FRKS AFB FAIR      47  32  55 W15       29.82R
DEVILS LAKE    FAIR      43  34  70 SW12      29.80R
FARGO          FAIR      45  34  65 SW12      29.89R
WAHPETON ARPT  NOT AVBL
$$

 ***** WEATHER ACROSS CENTRAL AND WESTERN NORTH DAKOTA  *****

CITY           SKY/WX    TMP DP  RH WIND       PRES   REMARKS
BISMARCK       FAIR      41  28  60 CALM      29.85F
MINOT          FAIR      43  29  57 SW12      29.74F
JAMESTOWN      FAIR      44  30  57 W9        29.86S
MINOT AFB      FAIR      44  29  56 SW10G20   29.72F
GARRISON         N/A     44  31  60 SW15      29.78S
WILLISTON      PTSUNNY   37  27  67 S6        29.73F
DICKINSON      FAIR      45  22  40 SW17      29.76F
HETTINGER      FAIR      43  21  41 SW7       29.87R
$$

 *****  OTHER AIRPORT OBSERVATIONS IN OUR AREA  *****

CITY           SKY/WX    TMP DP  RH WIND       PRES   REMARKS
WALHALLA       FAIR     N/A N/A N/A W13G23    29.73R
GRAFTON AIRPOR NOT AVBL
VALLEY CITY AR NOT AVBL
CANDO          FAIR      43  36  75 SW10      29.79S
CAVALIER APRT  FAIR      45  34  65 W12G18    29.76R
GWINNER          N/A     43  34  70 SW8       29.93S
SHEYENNE NWR     N/A     44  35  69 SW9       29.95S
ROLLA          FAIR      37  30  75 SW14      29.74S
 ***** THE ABOVE OBSERVATIONS ARE NON NWS ARE NOT QUALITY
       CONTROLLED AND MAY MIS-REPORT RAIN FOR SNOW...
$$

  *****  WEATHER ACROSS NORTHERN MINNESOTA  *****

CITY           SKY/WX    TMP DP  RH WIND       PRES   REMARKS
FLAG ISLAND    CLOUDY    46  37  71 SW18G31   29.67R
WARROAD        FAIR      46  37  71 SW16G24   29.74R
ROSEAU         FAIR      46  37  71 SW15G22   29.74R
HALLOCK        FAIR      46  36  66 SW17      29.77R
THF RVR FALLS  FAIR      46  33  60 SW17      29.83R
BAUDETTE       FAIR      46  36  68 SW18G28   29.74R
WASKISH        FAIR      48  39  71 SW20      29.78R
CROOKSTON      FAIR      46  34  61 W15       29.84R
STEPHEN NDAWN    N/A     46  36  66 SW18        N/A
GREENBUSH NDAW   N/A     46  36  66 SW17        N/A
$$
  *****  WEATHER ACROSS CENTRAL AND WEST MINNESOTA  *****

CITY           SKY/WX    TMP DP  RH WIND       PRES   REMARKS
FOSSTON        FAIR      45  34  65 SW16      29.86R
BEMIDJI        FAIR      46  34  61 W13G22    29.83F
PARK RAPIDS    FAIR      48  37  65 W8        29.87S
ELBOW LAKE     FAIR      44  36  74 SW8       29.93F
WADENA         FAIR      46  36  66 SW9       29.89F
DETROIT LAKES  FAIR      45  36  70 W7        29.89S
MOORHEAD       FAIR      43  34  70 SW8       29.91R
FERGUS FALLS   FAIR      45  36  70 W9        29.94S
MORRIS MN      FAIR      48  37  66 W7        29.94S
STAPLES        FAIR      46  36  66 SW10      29.91R
$$
  *****  WEATHER ELSEWHERE ACROSS MINNESOTA  *****

CITY           SKY/WX    TMP DP  RH WIND       PRES   REMARKS
DULUTH         FAIR      46  41  82 W15       29.86R
INTRNTL FALLS  FAIR      47  39  74 SW13G23   29.74R
ELY            FAIR      46  37  71 SW13      29.81R
CLOQUET        FAIR      46  39  76 SW8       29.87S
WHEATON        FAIR      46  36  66 SW12      29.96F
BRAINERD       FAIR     N/A N/A N/A W15       29.91R
HIBBING        FAIR      44  39  82 SW5       29.83S
ALEXANDRIA     FAIR      46  37  71 SW9       29.95S
SAINT CLOUD    FAIR      47  41  80 W12       29.95S
MINNEAPOLIS    PTSUNNY   50  42  74 W6        29.99R
$$

  *****  WEATHER ACROSS SOUTH DAKOTA  *****

CITY           SKY/WX    TMP DP  RH WIND       PRES   REMARKS
SIOUX FALLS    FAIR      49  37  63 SW3       30.05F
BROOKINGS      FAIR      43  36  76 S6        30.03R
WATERTOWN      FAIR      43  35  73 SW9       29.98F
HURON          FAIR      46  33  60 S8        30.01S
SISSETON         N/A     50  33  52 W16       29.94S
ABERDEEN       FAIR      40  35  83 S9        29.97R
MITCHELL       FAIR      48  34  58 SW8       30.04S
PIERRE         FAIR      41  31  67 SE5       29.96F
MOBRIDGE       FAIR      42  30  62 S7        29.89F
RAPID CITY     FAIR      41  19  41 VRB5      29.94F
$$

  *****  SOME WEATHER IN NEARBY STATES *****

CITY           SKY/WX    TMP DP  RH WIND       PRES   REMARKS
GLASGOW MT     CLOUDY    43  30  60 S10       29.64F
GREAT FALLS MT FAIR      51  35  54 W15G29    29.73R
CHEYENNE WY    FAIR      48  22  35 W24G39    30.16R
SCOTTSBLUFF NE FAIR      52  25  35 W6        30.10R
OMAHA NE       FAIR      50  39  66 CALM      30.12R
DES MOINES IA  PTSUNNY   52  43  71 NW9       30.06R
DAVENPORT IA   LGT RAIN  52  50  93 NW9       30.01R
CHICAGO IL     PTSUNNY   67  59  75 S14G24    29.94S
EAU CLAIRE WI  PTSUNNY   50  44  80 W5        29.96R
LA CROSSE WI   CLOUDY    53  47  79 W3        29.99R
$$

  *****  SOME NATIONAL WEATHER *****

CITY           SKY/WX    TMP DP  RH WIND       PRES   REMARKS
LA GUARDIA NY  PTSUNNY   70  48  45 CALM      30.40F
RALEIGH NC     FAIR      70  59  68 CALM      30.38S
ATLANTA GA     PTSUNNY   69  63  81 E9G20     30.26F
NEW ORLEANS LA FAIR      79  75  87 S8        30.02F
OKLAHOMA CITY  FAIR      55  46  71 NW14      30.20R
ALBUQUERQUE NM FAIR      46   7  20 S3        30.42R
SALT LAKE CITY PTSUNNY   50  21  32 SE10      30.37R
LOS ANGELES CA FAIR      67  35  30 CALM      30.10R
BOISE ID       CLOUDY    48  39  71 SE14      30.24R
SEATTLE WA     CLOUDY    53  48  83 SW9       30.01R
$$

*** WEATHER ACROSS MANITOBA...SASKATCHEWAN AND ONTARIO ***
                ***ONTARIO***

CITY           SKY/WX    TMP DP  RH WIND       PRES   REMARKS
GERALDTON      LGT RAIN  57  55  94 S15G23    29.68S VSB 1
THUNDER BAY    CLOUDY    54  45  71 W7        29.76R
SIOUX LOOKOUT  CLOUDY    46  39  76 SW12G20   29.60S
TORONTO        PTSUNNY   66  55  68 SW7       30.24S
BIG TROUT LK   CLOUDY    50  50 100 SW12G18   29.34S
PICKLE LAKE    CLOUDY    48  45  87 S15G23    29.52R
DRYDEN         LGT RAIN  45  41  87 SW17G25   29.60S FOG
KENORA         NOT AVBL
$$
                *** MANITOBA***

CITY           SKY/WX    TMP DP  RH WIND       PRES   REMARKS
BRANDON        MOSUNNY   39  34  81 W10       29.68S
DAUPHIN        SUNNY     43  36  75 W24G32    29.57S
ISLAND LAKE    LGT RAIN  43  39  87 SW15G21   29.27F
PILOT MOUND      N/A     39  32  75 SW15        N/A
THE PAS        LGT RAIN  37  36  93 W16       29.45S FOG
THOMPSON       LGT RAIN  34  32  93 NW7       29.19F FOG
WINNIPEG       MOSUNNY   45  36  70 W20G29    29.66R
CHURCHILL      LGT RAIN  37  37 100 N15       29.12F FOG
GILLAM         CLOUDY    43  39  87 SW14      29.12F
$$
                ***SASKATCHEWAN***

CITY           SKY/WX    TMP DP  RH WIND       PRES   REMARKS
ESTEVAN        PTSUNNY   37  27  65 S9        29.66F
KINDERSLEY     PTCLDY    36  28  75 SE12G17   29.37F
LLOYDMINSTER   MOCLDY    30  27  86 SE10      29.39S WCI  21
PRINCE ALBERT  FOG       28  28 100 E6        29.54F VSB 1/4 WCI  22
REGINA         PTSUNNY   32  28  86 SE8       29.57F WCI  25
YORKTON        SUNNY     34  30  86 SW9       29.57F
N. BATTLEFORD  CLEAR     32  27  80 E10       29.44F WCI  24
LA RONGE       CLOUDY    34  34 100 W7        29.52F
SASKATOON      CLOUDY    32  30  93 SE6       29.48F
SWIFT CURRENT  CLOUDY    45  34  65 SW18G26   29.45F
$$
NOTE: THESE ARE AUTOMATED STATIONS WITH LIMITED QUALITY CONTROL
      "FAIR" INDICATES FEW OR NO CLOUDS BELOW 12,000 FEET WITH NO
      SIGNIFICANT WEATHER AND/OR OBSTRUCTIONS TO VISIBILITY.
      SKY/WX - SKY CONDITION AND SIGNIFICANT WEATHER.
      TMP - AIR TEMPERATURE.    DP   - DEWPOINT TEMPERATURE.
      RH  - RELATIVE HUMIDITY.  PRES - PRESSURE.
      HX  - HEAT INDEX.         WCI  - WIND CHILL INDEX.
$




USA.gov is the U.S. government's official web portal to all federal, state and local government web resources and services.